Flag for British Virgin Islands Weather past 2 weeks in Road Town, Tortola, British Virgin Islands

Now
88 °F

Scattered clouds.


Feels Like: 98 °F
Forecast: 80 / 86 °F
Wind: 14 mph from Southeast

Location: Beef Island - Tortola

Current Time: Jul 31, 2015 at 9:22:24 AM

Latest Report: Jul 31, 2015 at 9:00 AM


Visibility: N/A

Pressure: 30.07 "Hg

Humidity: 66%

Dew point: 75 °F

Location of Road TownLocation

Historic Weather in Road Town — Graph

°F

Road Town temperature yesterday

Maximum temperature yesterday: 93 °F (at 12:00 PM)
Minimum temperature yesterday: 81 °F (at 7:00 AM)
Average temperature yesterday: 88 °F

Past Weeks' High & Low Weather Summary

 TemperatureHumidityPressure
High93 °F (Jul 27, 2:00 PM)100% (Jul 18, 12:00 PM)30.12 "Hg (Jul 18, 12:00 PM)
Low68 °F (Jul 18, 12:00 PM)55% (Jul 30, 5:00 PM)29.98 "Hg (Jul 21, 4:00 PM)
Average85 °F71%30.05 "Hg
* Reported Jul 16 8:00 AM — Jul 31 8:00 AM, Road Town, Weather by CustomWeather, © 2015

Note: Actual official high and low records may vary slightly from our data, if they occured in-between our weather recording intervals... More about our weather records

Advertising

Road Town weather history for previous 24 hours

 ConditionsComfort  
Time TempWeatherWind HumidityBarometerVisibility
8:00 AM
Fri, Jul 31
84 °FScattered clouds.N/A74%30.07 "HgN/A
6:50 AM82 °FScattered clouds.12 mph79%30.04 "HgN/A
6:00 AM82 °FScattered showers. Scattered clouds.10 mph79%30.04 "HgN/A
10:00 PM
Thu, Jul 30
82 °FPassing clouds.12 mph79%30.07 "HgN/A
8:00 PM82 °FPassing clouds.12 mph79%30.04 "HgN/A
7:00 PM84 °FPassing clouds.12 mph74%30.01 "HgN/A
6:00 PM86 °FScattered clouds.12 mph66%30.01 "HgN/A
5:00 PM90 °FScattered clouds.9 mph55%30.01 "HgN/A
4:00 PM90 °FScattered clouds.13 mph63%30.01 "HgN/A
3:00 PM91 °FScattered clouds.14 mph59%30.04 "HgN/A
2:00 PM91 °FScattered clouds.15 mph59%30.04 "HgN/A
1:00 PM93 °FScattered clouds.13 mph59%30.07 "HgN/A
12:00 PM93 °FScattered clouds.14 mph56%30.07 "HgN/A
11:00 AM91 °FPassing clouds.14 mph59%30.07 "HgN/A
10:00 AM86 °FPassing clouds.10 mph70%30.09 "HgN/A
9:00 AM88 °FScattered clouds.13 mph70%30.07 "HgN/A
Weather by CustomWeather, © 2015

See weather overviewHow to use our weather pages